Regional Weather Roundup
Issued by NWS

Home | Current Version | Previous Version | Text Only | Print | Product List | Glossary Off
Versions: 1 2 3 4 5 6 7 8 9 10 11 12 13 14 15 16 17 18 19 20 21 22 23 24 25 26 27 28 29 30 31 32 33 34 35 36 37 38 39 40 41 42 43 44 45 46 47 48 49 50

000
ASUS45 KPSR 032310
RWRAZ

ARIZONA HOURLY REGIONAL WEATHER ROUNDUP
NATIONAL WEATHER SERVICE PHOENIX AZ
400 PM MST THU SEP 03 2015

NOTE: FAIR INDICATES FEW OR NO CLOUDS BELOW 12,000 FEET WITH NO
SIGNIFICANT WEATHER AND/OR OBSTRUCTIONS TO VISIBILITY.

AZZ001>003-036-040000-
NORTHWEST ARIZONA

CITY           SKY/WX    TMP DP  RH WIND       PRES   REMARKS
BULLHEAD CITY  SUNNY    102  36  10 SW17G24   29.66F
KINGMAN        SUNNY     92  30  11 SW22G33   29.87F
$$

AZZ004>008-015-016-018-040000-
NORTH CENTRAL ARIZONA

CITY           SKY/WX    TMP DP  RH WIND       PRES   REMARKS
GRAND CANYON   SUNNY     78  36  21 SW14G23   30.11F
WILLIAMS       MOSUNNY   77  37  24 SW16      30.17F
PRESCOTT       MOSUNNY   83  39  21 S10G25    30.02F
FLAGSTAFF      SUNNY     73  45  36 W14       30.16F
PAYSON         PTSUNNY  N/A N/A N/A MISG        N/A
PAGE           SUNNY     92  32  12 S9G18     29.89F
$$

AZZ009>014-017-040000-
NORTHEAST ARIZONA

CITY           SKY/WX    TMP DP  RH WIND       PRES   REMARKS
WINSLOW        LGT RAIN  71  56  58 E18G29    30.02R
SAINT JOHNS    CLOUDY    68  53  58 S23G31    30.09F
WINDOW ROCK    CLOUDY    78  42  27 W9        30.13F
SHOW LOW       PTSUNNY   73  48  40 W15       30.14S
$$

AZZ023-040000-
GREATER PHOENIX AREA

CITY           SKY/WX    TMP DP  RH WIND       PRES   REMARKS
PHOENIX        MOSUNNY   95  62  33 S14G25    29.76F
BUCKEYE        MOSUNNY   91  59  33 SE14      29.74F
GLENDALE       PTSUNNY   97  61  30 E17G23    29.77F
LUKE AFB       MOSUNNY   98  59  27 SE16      29.74F
DEER VALLEY    MOSUNNY   94  58  29 S15       29.77S
SCOTTSDALE     SUNNY     93  60  33 S10G17    29.81S
MESA-FALCON    PTSUNNY   95  59  30 S12       29.79F
MESA-GATEWAY   MOSUNNY   91  59  33 S7        29.81F
$$

AZZ027-028-040000-
SOUTHWEST MARICOPA COUNTY AND PINAL COUNTY

CITY           SKY/WX    TMP DP  RH WIND       PRES   REMARKS
CASA GRANDE    CLOUDY    81  70  69 E7        29.80F
GILA BEND      PTSUNNY   98  59  27 E17       29.71F
$$

AZZ503-504-507>509-040000-
SOUTHEAST ARIZONA

CITY           SKY/WX    TMP DP  RH WIND       PRES   REMARKS
TUCSON         RAIN      71  65  81 S15       30.03R
DAVIS-MONTHAN  LGT RAIN  70  66  88 S8        30.02R
RYAN FIELD     TSTM      72  70  94 S14       30.02R
NOGALES        RAIN      68  63  84 S5        30.08R
SIERRA VISTA   LGT RAIN  66  62  87 NW9       30.11R FOG
DOUGLAS        CLOUDY    72  59  63 S15       30.07S
SAFFORD        LGT RAIN  80  62  54 SW3       29.93S
$$

AZZ020-021-025-026-031-040000-
SOUTHWEST ARIZONA

CITY           SKY/WX    TMP DP  RH WIND       PRES   REMARKS
YUMA           MOSUNNY  105  41  11 S12G22    29.66F HX 100
$$

CAZ031-033-041-043-047-048-061-040000-
SOUTHERN CALIFORNIA

CITY           SKY/WX    TMP DP  RH WIND       PRES   REMARKS
DOWNTOWN L.A.  SUNNY     76  57  51 VRB7      29.83F
L.A. AIRPORT   SUNNY     73  57  57 W14       29.84F
SAN DIEGO      MOSUNNY   75  57  53 W9        29.87F
BURBANK        SUNNY     78  55  44 S9        29.83F
ONTARIO        SUNNY     85  50  29 NW10      29.82F
RIVERSIDE      SUNNY     85  54  34 W9        29.81F
PALM SPRINGS   SUNNY    101  42  13 NW15      29.69F
EL CENTRO NAS  MOSUNNY  102  42  13 E6        29.66F
IMPERIAL       SUNNY    103  40  11 VRB3      29.64F
BLYTHE         SUNNY    104  50  16 S18G24    29.65F HX 101
NEEDLES        SUNNY    104  35   9 S15G24    29.68F
$$

NVZ020-UTZ003-040000-
SOUTHERN NEVADA-UTAH

CITY           SKY/WX    TMP DP  RH WIND       PRES   REMARKS
LAS VEGAS      MOSUNNY   98  30   9 SW15G25   29.68F
SALT LAKE CITY MOSUNNY   89  32  13 S22G29    29.78F
$$

NMZ009-TXZ055-040000-
NEW MEXICO-WEST TEXAS

CITY           SKY/WX    TMP DP  RH WIND       PRES   REMARKS
ALBUQUERQUE    MOSUNNY   86  42  21 SE6       30.02F
EL PASO        CLOUDY    88  50  27 W12       29.96F
$$


........................KEY........................
SKY/WX - SKY CONDITION/WEATHER
TMP    - TEMPERATURE IN FAHRENHEIT
DP     - DEW POINT IN FAHRENHEIT
RH     - RELATIVE HUMIDITY IN PERCENT
WIND   - DIRECTION AND SPEED IN MILES PER HOUR (MPH)
VRB    - VARIABLE WIND DIRECTION
PRES   - MEAN SEA LEVEL PRESSURE IN INCHES OF MERCURY
         F - FALLING PRESSURE   R - RISING PRESSURE
         S - STEADY PRESSURE
VSB    - VISIBILITY IN MILES
HX     - HEAT INDEX IN FAHRENHEIT
WCI    - WIND CHILL INDEX IN FAHRENHEIT
TC     - TEMPERATURE IN CELSIUS WHICH IS ALSO KNOWN AS
         TEMPERATURE IN CENTIGRADE
AFB    - AIR FORCE BASE
         LUKE AFB IS LUKE AIR FORCE BASE
         DAVIS-MONTHAN IS DAVIS-MONTHAN AIR FORCE BASE
NAS    - NAVAL AIR STATION
         EL CENTRO NAS IS EL CENTRO NAVAL AIR STATION
N/A    - NOT AVAILABLE



USA.gov is the U.S. government's official web portal to all federal, state and local government web resources and services.